Wind_Speed
19 20 21 21 21 20 19 18 18 17 15 13 13 13 14 14 15 15 14 13 12 11 10 10 9 10 11 11 11 11 12 12 11 11 11 10 11 11 10 10 10 9 8 8 7 6 7 7 8 9 10 10 10 10 9 9 9 9 9 10 10 11 12 12 14 15 17 18 19 19 18 18 17 16 15 16 17 19 20 20 20 20 19 18 17
20 21 22 21 21 21 20 19 18 17 15 14 15 15 15 16 16 15 13 12 11 11 11 10 10 11 11 11 11 11 11 11 10 10 10 10 10 9 9 8 8 8 7 6 6 6 7 8 8 9 10 10 9 9 9 9 9 9 10 11 11 12 12 12 13 15 17 17 18 18 18 18 18 18 17 17 19 21 22 23 23 22 20 19 17
20 21 22 22 21 20 19 18 17 17 16 16 17 16 16 16 16 14 13 12 12 12 12 11 11 11 11 11 11 11 11 10 9 9 9 8 8 8 7 7 7 6 6 6 6 6 7 8 8 9 9 9 9 9 9 9 9 9 10 11 12 12 12 13 14 16 17 17 16 17 18 19 19 20 20 20 21 22 23 24 25 24 22 20 17
20 20 21 21 20 19 19 18 17 17 17 18 18 17 16 16 14 13 12 12 13 13 13 12 12 11 11 12 11 11 11 10 9 8 8 7 7 7 6 6 6 6 6 6 6 6 7 7 8 8 9 9 9 9 9 10 9 10 11 12 12 12 12 13 15 16 17 16 16 16 17 19 20 22 23 24 24 24 25 26 25 24 22 20 18
20 20 20 19 19 18 18 17 18 19 19 20 20 18 16 15 14 13 13 13 13 13 13 13 12 12 11 11 11 11 10 9 8 7 7 6 6 5 5 6 6 6 6 6 6 6 7 7 8 8 8 9 9 9 9 9 10 10 11 12 12 12 13 14 15 16 16 15 15 15 17 19 21 23 25 26 27 26 27 27 26 24 22 21 20
19 19 19 18 17 17 17 18 19 20 20 20 20 18 16 14 14 13 13 13 14 14 14 13 12 11 11 11 11 10 10 8 8 7 6 6 5 4 5 5 5 5 6 6 6 7 7 7 8 8 8 9 9 9 9 9 9 9 11 12 12 12 13 14 15 15 15 14 14 15 17 19 21 23 25 27 27 27 28 27 26 24 23 21 21
19 18 18 17 16 16 17 19 20 20 20 19 19 18 16 15 14 14 13 14 14 14 14 12 11 11 11 11 10 10 9 8 7 7 6 5 4 4 4 4 5 5 6 6 6 7 7 7 8 8 8 9 9 8 8 9 8 9 10 11 12 12 13 14 14 15 15 14 13 15 17 19 21 23 25 27 27 27 27 27 27 25 24 23 22
19 18 17 16 16 17 19 20 21 21 19 18 18 17 16 15 13 13 13 14 14 15 14 12 11 10 10 10 9 9 8 8 7 6 5 5 4 3 3 4 4 5 6 6 7 7 7 8 8 9 9 9 8 8 8 8 8 8 10 11 12 12 13 14 14 14 14 13 13 15 17 19 20 23 25 26 26 26 26 27 27 27 25 24 24
18 18 17 17 18 19 20 21 21 20 19 17 17 16 15 14 12 12 13 14 15 15 15 14 12 10 9 9 8 8 7 7 6 6 5 4 4 3 3 3 4 5 6 6 6 7 7 8 8 8 9 9 8 8 8 8 8 9 10 11 12 12 13 13 13 14 14 14 13 15 17 19 20 22 25 25 25 25 26 27 28 27 27 25 25
17 17 18 19 21 21 21 21 20 19 18 16 15 15 14 13 11 12 13 14 15 16 16 15 14 12 10 9 8 7 7 6 6 6 5 4 4 3 2 2 3 4 5 5 6 6 7 8 8 8 9 9 9 9 9 8 9 9 10 11 12 12 13 13 13 14 14 14 14 16 17 18 19 22 24 24 24 24 26 27 27 27 27 26 26
17 18 19 21 22 23 22 21 20 19 17 16 15 14 13 11 10 11 13 14 15 16 16 15 15 14 12 10 9 8 7 7 7 6 6 5 3 2 2 2 3 3 4 5 5 6 7 8 8 9 9 10 10 10 9 9 9 9 10 11 12 12 13 13 13 13 14 14 15 16 16 17 19 21 23 23 23 24 26 27 27 27 28 27 26
18 20 21 22 23 22 21 20 19 18 17 16 15 14 12 10 10 11 13 14 15 16 16 15 14 14 13 12 10 9 8 8 8 7 6 5 4 2 1 1 2 3 4 4 5 7 8 8 9 9 9 10 10 10 9 9 8 9 10 11 12 13 13 14 14 14 14 14 15 15 15 16 19 21 22 22 23 25 26 27 27 28 28 28 27
20 20 21 21 21 20 20 19 18 17 16 15 14 13 12 11 10 10 12 13 14 15 15 15 14 14 13 12 11 9 8 8 8 7 6 5 4 3 1 1 1 2 3 4 6 7 8 8 9 10 9 9 9 9 9 8 8 9 10 11 12 13 14 15 15 15 15 14 14 14 15 15 18 20 21 22 22 25 26 27 28 28 28 28 27
20 20 20 19 18 18 17 17 17 16 15 14 13 12 12 12 11 11 12 12 13 14 14 15 14 14 13 12 10 9 8 7 7 7 6 5 3 3 2 1 0 2 3 4 6 7 8 9 9 10 9 9 8 8 8 8 8 8 10 11 12 13 14 15 16 16 16 14 13 14 13 14 17 19 20 21 22 24 26 27 28 28 29 28 28
18 18 18 17 16 16 15 15 14 14 14 13 12 12 11 11 11 11 11 12 12 13 13 14 14 13 13 12 11 9 8 7 7 6 6 5 4 3 2 1 1 2 3 4 5 6 7 8 9 10 9 9 8 8 8 8 7 8 9 10 11 13 14 15 16 16 16 14 13 13 12 13 16 17 19 20 22 24 25 26 27 28 28 28 28
17 16 16 15 14 14 13 13 12 12 13 12 12 11 10 10 10 10 11 11 11 12 12 12 12 12 12 12 11 10 9 8 7 6 6 5 4 3 2 1 1 1 2 3 4 6 7 8 9 9 9 9 8 8 8 7 7 8 9 9 11 13 14 15 16 16 15 14 13 12 11 12 14 16 18 19 21 23 24 25 26 27 28 28 28
15 15 14 13 12 12 12 11 11 11 11 11 10 9 8 8 8 9 10 10 11 11 11 10 9 10 10 10 10 10 9 8 7 7 6 5 5 4 2 1 1 1 2 3 5 6 8 8 8 9 9 9 8 8 8 8 8 8 9 9 11 13 14 15 16 16 16 14 12 11 10 10 13 15 17 18 20 22 23 24 25 26 27 28 28
14 14 13 12 12 11 11 11 10 10 10 9 9 8 7 7 7 8 8 9 9 10 10 9 8 8 8 8 8 8 8 8 7 7 6 6 5 4 3 3 2 2 3 5 6 7 7 8 8 9 9 9 9 9 9 8 8 9 9 10 12 13 14 15 16 16 16 15 13 11 9 9 12 13 15 17 19 21 22 23 24 25 27 28 27
14 14 13 12 12 11 11 10 9 9 9 8 8 7 6 6 6 6 7 7 7 8 8 8 7 7 6 6 6 6 6 6 6 6 6 6 5 4 4 4 4 4 5 6 7 7 8 8 9 9 9 9 10 10 9 9 9 9 10 10 12 13 14 15 16 17 18 16 13 10 9 9 10 12 15 17 18 20 21 23 23 23 25 26 26
13 13 12 12 11 11 10 9 9 8 7 7 6 6 5 5 5 5 5 5 5 6 6 6 6 6 5 5 5 5 5 5 5 5 4 4 4 3 3 4 4 5 6 7 7 7 8 8 9 9 10 10 10 10 10 10 10 10 10 11 12 13 14 15 17 18 19 17 13 10 8 8 9 11 14 16 18 19 20 22 22 22 24 25 25
12 11 11 10 10 9 9 9 8 7 7 6 6 6 6 5 5 4 4 4 4 5 5 5 5 4 4 4 4 4 4 4 3 3 3 2 3 3 3 4 5 6 6 6 7 7 7 8 9 10 11 11 10 10 11 11 11 10 11 12 12 13 14 16 18 19 19 17 13 10 8 8 9 10 13 16 17 18 19 20 22 22 22 23 23
11 11 11 10 10 9 9 8 8 7 6 6 6 6 6 6 5 4 4 4 4 4 5 5 4 4 3 3 3 3 3 3 2 2 2 2 3 4 5 6 6 6 6 7 7 7 8 8 9 10 11 10 11 11 11 12 11 11 11 12 12 13 14 17 18 19 17 15 12 9 8 8 8 10 12 15 16 17 18 19 21 21 21 22 22
11 11 11 10 10 9 8 8 7 7 6 5 5 5 5 4 4 4 4 4 5 5 5 5 5 5 4 4 4 5 4 4 4 4 4 4 5 5 6 7 7 7 6 6 6 7 8 8 9 10 10 11 11 12 11 11 11 11 11 11 11 12 15 17 18 17 15 13 10 8 8 8 8 9 12 14 15 16 18 19 19 20 20 20 20
10 10 10 9 9 9 8 7 6 6 6 5 4 4 4 4 4 4 4 4 5 5 5 6 6 5 5 5 6 6 5 5 5 5 5 5 5 6 6 7 7 7 6 6 6 7 8 9 10 11 12 12 12 12 11 10 10 10 10 9 10 12 15 16 17 15 13 12 9 8 8 8 8 10 11 13 15 16 17 18 18 19 19 19 19
8 8 8 8 8 8 7 7 6 6 5 5 5 5 5 4 4 5 5 4 5 5 5 5 6 6 6 7 7 6 6 5 5 4 4 5 6 6 7 7 7 7 7 7 8 8 10 11 12 12 13 12 11 11 10 10 9 9 8 9 10 12 14 16 15 14 13 11 10 9 8 8 9 10 11 12 14 15 16 17 17 17 17 17 17
8 8 8 8 7 7 7 6 6 6 6 6 6 6 5 5 5 5 5 5 5 5 5 5 5 5 6 7 6 6 5 4 3 3 4 4 5 6 7 7 8 8 9 9 10 10 11 11 12 12 12 11 10 9 9 8 7 7 8 9 10 13 14 15 15 13 12 11 10 9 9 9 10 11 12 13 14 15 15 16 16 16 16 16 16
9 9 8 8 8 8 8 7 7 7 7 7 7 7 6 6 5 5 5 5 5 5 5 5 5 5 5 5 5 5 4 3 2 2 3 4 5 5 6 7 8 9 9 10 10 11 11 10 10 10 10 9 8 8 7 6 6 7 8 9 11 13 14 15 14 12 12 11 10 10 10 10 11 12 13 13 14 14 15 15 15 15 16 16 15
10 10 9 9 9 9 9 9 8 8 7 7 7 7 7 7 6 5 5 5 5 5 6 5 4 4 4 4 4 3 3 2 3 3 4 5 5 6 6 7 8 8 9 9 9 10 11 10 8 8 8 7 6 6 5 5 6 6 8 10 12 14 15 14 13 12 11 11 10 10 11 11 11 12 12 13 14 14 15 15 15 15 15 15 15
11 11 11 11 10 10 9 9 9 8 8 7 7 7 7 7 7 6 6 5 5 5 5 5 4 4 5 5 4 4 4 4 4 5 6 6 6 6 6 7 7 8 8 8 7 8 10 9 7 5 6 5 4 4 4 4 5 7 9 11 13 14 14 14 13 12 12 11 12 12 12 12 12 12 13 13 13 14 15 15 16 16 16 15 14
12 12 12 12 12 11 11 10 10 10 9 9 9 9 8 8 8 7 7 7 6 6 6 5 5 6 6 5 5 5 5 5 5 6 6 6 6 6 6 6 6 6 7 6 6 7 8 8 7 5 4 4 4 4 4 5 6 8 10 11 12 13 13 13 12 12 11 12 12 13 13 14 13 13 13 13 13 14 15 16 16 16 16 16 14
13 13 13 13 13 12 12 11 11 11 10 10 11 10 10 9 9 9 8 8 8 8 7 7 7 7 6 6 6 6 5 4 5 5 5 5 5 5 4 4 5 5 6 6 6 6 7 7 7 6 5 5 5 5 5 7 8 9 10 11 11 12 12 12 12 12 12 13 13 14 14 14 14 13 13 13 13 14 15 15 16 17 17 16 15
14 15 15 14 13 12 12 12 12 11 11 11 11 11 11 10 10 10 10 10 10 9 9 8 8 7 7 6 6 5 4 4 4 4 4 4 4 4 3 4 4 5 5 6 6 7 8 8 8 9 8 8 8 7 7 8 9 10 10 11 12 12 12 12 12 13 13 14 14 15 15 14 14 14 14 14 13 13 14 15 15 16 16 16 16
16 16 16 15 14 13 13 13 12 12 11 11 12 12 11 11 11 11 11 11 10 10 9 9 8 8 7 7 6 5 4 3 3 4 5 5 5 4 4 3 4 5 5 6 6 7 8 9 9 10 10 10 10 9 9 9 9 9 10 11 13 13 12 12 13 13 13 14 14 14 14 14 14 14 14 14 14 13 14 14 15 15 15 15 15
17 17 16 16 15 15 14 14 13 12 12 12 12 12 12 11 11 11 11 11 10 10 9 9 8 8 7 7 6 6 5 4 4 3 4 5 5 5 4 4 4 5 6 6 6 6 7 8 9 9 9 10 10 11 11 11 11 10 10 11 12 12 12 12 12 13 13 13 13 14 14 14 14 15 15 15 14 14 14 14 14 14 13 13 13
17 17 16 16 16 16 16 15 14 14 13 13 13 13 13 12 12 12 12 11 11 10 10 9 9 8 8 7 7 7 7 5 5 4 4 5 5 5 5 4 5 5 6 6 6 7 7 8 9 9 9 9 10 11 11 12 13 13 13 13 14 14 13 13 13 14 13 12 12 13 14 14 15 15 16 16 15 14 14 14 14 13 13 12 12
18 17 17 16 16 17 17 16 16 15 14 14 14 13 13 13 13 12 12 12 11 11 10 10 9 9 8 8 8 8 7 7 6 6 5 5 5 5 5 5 5 5 5 6 6 7 8 9 9 10 10 9 9 11 12 12 13 14 15 15 16 16 15 14 15 15 14 13 12 13 14 14 15 15 16 16 15 15 15 15 14 14 13 13 12
19 19 18 17 17 18 18 17 17 16 15 15 14 14 13 13 13 13 13 12 12 12 11 11 10 9 9 9 9 8 8 8 7 7 7 7 7 7 6 6 6 6 6 6 7 8 9 10 10 11 11 10 10 11 13 14 14 15 15 15 16 16 16 15 15 15 15 14 14 14 14 14 15 15 15 15 15 16 16 16 16 15 15 14 13
21 20 19 19 19 19 19 19 18 17 16 16 16 15 14 14 14 14 14 13 13 13 12 12 11 11 10 10 10 10 10 9 9 8 8 8 8 8 8 7 8 8 8 8 9 9 10 11 12 12 12 11 11 11 13 14 16 17 17 16 15 15 15 15 14 15 16 15 15 16 15 15 15 15 14 14 14 15 16 16 17 16 16 16 15
23 22 21 21 21 21 20 20 19 18 18 18 18 17 16 16 16 15 15 15 14 14 13 12 12 12 12 11 12 12 11 11 10 10 10 10 10 9 9 9 9 9 9 10 10 11 11 13 13 14 13 13 13 13 13 15 16 18 19 19 18 16 15 14 14 15 16 15 15 16 16 15 15 14 13 13 13 14 15 16 16 17 17 17 16
25 24 24 23 23 23 22 21 21 21 20 20 20 20 19 19 18 18 17 16 15 15 14 13 13 13 13 13 13 13 12 12 12 12 12 12 11 11 11 11 11 11 11 11 12 13 13 14 15 16 15 15 15 15 15 16 17 18 19 20 20 19 18 16 15 15 16 16 15 16 16 15 14 14 13 12 13 13 14 15 15 16 16 16 17
28 27 26 26 25 25 25 24 24 23 22 22 22 23 23 22 21 20 19 18 17 16 15 15 15 15 15 14 14 14 14 13 13 14 14 14 13 13 13 13 13 13 13 13 14 14 15 16 17 17 17 17 17 17 17 17 17 18 18 19 20 20 20 19 17 16 17 17 16 16 17 16 15 14 13 13 13 13 14 14 15 15 15 15 15
31 30 29 29 28 28 27 27 26 25 25 25 25 25 25 25 24 23 22 21 19 18 18 17 17 17 17 16 16 16 16 16 16 16 16 16 15 15 15 15 15 16 15 15 16 16 17 18 18 19 19 19 19 18 18 18 18 18 19 19 19 19 19 19 18 17 18 18 17 17 18 17 16 15 14 13 13 13 13 14 15 15 16 15 15
34 33 32 31 31 31 30 30 29 28 27 28 28 28 27 27 26 25 24 23 21 20 20 20 20 20 19 19 19 18 18 19 19 19 19 18 18 17 17 17 17 18 18 17 18 19 19 19 20 20 21 21 21 20 20 20 20 20 20 20 20 19 19 19 19 19 20 20 19 19 19 18 17 16 14 13 13 13 13 14 15 15 16 16 15
36 36 35 34 34 33 33 32 31 30 30 30 30 29 29 29 28 27 26 25 24 23 23 23 23 22 22 21 21 21 21 21 20 20 20 20 20 19 18 18 18 19 19 19 20 21 21 21 22 23 23 23 23 23 22 22 22 22 22 22 22 21 20 19 18 19 21 22 22 21 21 20 19 18 16 15 14 14 14 14 15 15 16 16 16
39 39 38 37 37 36 35 35 34 33 33 32 32 31 31 30 29 28 28 27 27 26 26 26 25 25 24 24 23 23 23 22 21 22 22 22 23 22 20 19 19 18 19 20 21 22 22 22 23 24 24 25 26 26 25 24 24 23 23 24 24 23 22 21 19 19 21 22 22 23 23 22 21 20 19 17 16 17 16 16 16 16 17 17 17
42 41 40 39 39 38 38 37 36 35 35 35 34 33 32 31 31 29 30 30 29 28 28 28 28 27 26 26 25 24 24 23 23 24 25 25 25 23 21 21 20 20 21 21 22 23 23 23 23 23 24 26 27 28 28 27 27 25 25 24 25 25 25 23 22 21 23 23 23 23 24 23 22 22 20 19 18 18 18 18 18 18 18 18 18
40 40 41 41 40 39 39 38 38 37 36 35 35 35 33 33 32 31 31 31 31 30 30 30 30 29 28 27 26 26 25 26 26 26 27 27 25 23 23 23 23 23 24 24 24 24 24 24 24 24 24 26 28 28 29 29 29 29 28 26 26 26 26 25 24 23 24 25 25 24 25 25 24 23 22 20 19 19 20 20 20 20 19 19 19
36 37 38 40 41 39 38 38 39 38 37 36 35 35 34 34 34 33 32 32 33 33 33 32 31 31 30 29 28 27 27 27 28 29 29 29 27 25 25 25 25 26 26 26 26 26 26 26 26 26 26 27 28 28 28 29 30 30 30 29 28 27 27 26 26 25 25 26 26 25 26 26 26 26 24 23 21 21 21 20 21 20 20 20 20
37 37 38 39 39 38 37 37 38 38 38 37 33 30 30 33 34 35 35 34 33 34 34 34 33 32 31 31 30 29 28 29 30 30 31 31 30 28 28 28 28 28 28 29 29 28 28 28 28 29 30 31 31 31 30 30 30 30 30 30 30 30 29 28 28 27 26 26 26 27 27 28 28 28 27 26 25 24 23 23 22 22 22 21 21
42 40 40 40 38 37 36 35 36 37 37 35 32 29 30 33 36 37 37 35 33 33 34 34 34 33 32 31 31 30 29 30 31 32 32 32 31 30 30 30 30 30 31 31 31 30 30 31 32 32 33 34 34 34 34 33 32 32 31 31 31 32 32 31 30 29 27 27 28 29 29 30 30 30 29 28 28 27 27 26 26 26 25 24 24
45 43 41 40 39 38 37 36 36 37 36 35 33 31 32 35 36 37 37 35 33 33 33 33 33 32 32 31 31 30 30 30 32 33 33 34 33 33 33 33 33 33 32 32 33 33 33 34 35 35 34 34 35 36 36 36 36 36 35 33 33 33 34 33 32 30 29 28 29 30 31 31 32 32 31 30 30 29 29 29 29 29 28 27 27
Wind_Direction
128 130 133 136 138 141 140 135 130 127 128 133 134 135 136 135 133 132 131 132 130 124 116 111 116 125 127 126 125 125 123 120 117 116 113 111 109 108 106 104 101 97 92 86 78 70 63 56 49 44 41 39 37 36 37 38 38 38 39 40 37 31 24 16 10 7 6 3 3 7 14 19 23 25 22 16 9 4 1 359 357 354 352 349 344
130 130 131 132 134 136 135 132 129 129 132 136 136 136 137 134 133 133 133 133 128 121 116 116 125 131 130 128 128 127 124 120 117 115 112 110 108 107 106 103 97 92 87 83 75 65 58 52 46 42 39 38 36 35 36 35 36 37 41 41 36 31 23 15 11 8 7 6 5 9 12 14 15 16 15 12 8 4 360 357 355 353 352 352 349
130 131 132 133 135 135 134 133 131 132 136 138 137 136 136 134 133 134 134 131 126 120 118 124 132 133 130 130 129 127 123 119 115 113 110 108 105 103 102 97 89 82 75 71 67 59 53 47 42 38 35 35 34 34 34 34 34 37 41 41 35 29 23 16 12 10 9 10 11 11 11 11 10 8 6 5 4 2 359 357 356 355 355 356 356
132 133 134 134 135 135 134 134 134 136 140 140 137 136 135 133 133 133 132 128 124 122 123 129 134 133 130 129 128 125 122 118 114 112 110 106 102 99 94 89 78 67 57 52 51 48 44 39 35 32 30 31 31 31 31 32 33 37 42 39 33 28 22 17 12 11 11 13 15 14 12 10 7 4 2 1 360 359 358 360 1 0 360 0 359
132 133 133 133 133 134 135 136 138 140 141 139 136 135 134 133 131 130 129 126 123 123 125 130 133 132 129 126 124 122 119 117 115 113 110 104 99 93 86 77 64 50 40 36 36 35 34 31 29 27 26 28 29 29 29 30 32 35 41 39 33 29 23 17 14 12 13 15 18 16 13 10 6 3 1 359 358 358 0 3 4 4 4 4 1
133 133 133 132 133 136 137 138 140 140 139 136 133 133 133 131 130 129 128 126 124 123 125 129 132 129 125 122 121 120 119 118 119 117 113 107 99 86 73 63 51 39 30 26 26 27 27 25 25 24 25 27 27 27 27 30 32 34 39 39 35 31 24 18 14 14 15 17 18 15 13 9 4 3 2 360 359 1 3 5 7 8 8 7 3
137 136 134 134 136 138 140 140 140 138 136 133 132 133 132 130 129 129 128 125 123 122 123 127 128 124 120 118 119 120 120 122 124 121 117 113 103 83 64 48 36 29 23 22 23 25 26 24 23 24 25 27 26 25 27 33 34 34 36 37 37 33 26 19 15 14 16 18 18 15 12 7 3 4 4 1 2 5 5 7 9 10 10 8 6
140 139 137 137 139 141 140 139 139 136 134 132 131 131 129 128 128 128 127 124 123 123 123 123 122 119 117 116 117 119 120 123 124 120 116 112 100 78 56 35 24 20 18 21 24 25 24 24 24 24 25 27 25 23 26 34 36 34 34 35 37 33 26 19 15 15 17 17 17 14 10 5 3 6 6 4 5 7 8 9 11 11 11 9 7
140 141 141 140 140 140 140 139 137 135 133 132 131 128 126 126 128 129 129 129 128 127 126 124 122 119 115 112 113 115 115 118 117 112 106 96 84 65 45 27 18 19 21 23 24 23 22 23 23 22 23 25 25 22 25 32 35 34 32 33 34 31 25 19 16 16 16 16 15 13 9 5 4 8 9 8 8 9 11 11 11 11 12 11 9
142 142 141 141 140 140 139 138 136 134 133 133 129 125 122 123 128 132 132 132 131 129 128 128 126 123 117 112 113 115 116 116 112 102 94 84 72 58 38 22 23 25 24 24 24 21 20 21 21 20 20 22 24 24 25 31 32 31 30 30 29 26 22 19 17 17 15 14 14 11 8 5 5 9 12 11 9 11 14 13 10 11 13 12 11
141 142 141 141 140 140 139 139 138 136 135 133 127 122 120 123 131 135 133 131 129 127 128 130 130 128 124 123 124 125 125 121 113 103 97 92 86 74 49 28 33 34 26 24 23 21 19 19 19 18 16 17 20 21 25 29 29 30 30 29 25 21 19 19 18 18 15 14 13 9 7 5 5 10 14 13 10 13 15 13 10 11 13 13 14
139 140 141 141 141 141 141 141 140 138 136 133 129 126 126 129 135 135 132 129 127 128 131 132 133 132 131 132 133 133 131 123 114 109 106 106 105 98 77 45 37 34 26 20 19 18 15 16 18 19 17 14 15 18 23 25 24 30 31 27 23 20 20 20 20 19 16 15 13 8 6 5 7 11 15 14 12 14 15 13 10 10 12 13 15
137 139 140 141 142 143 143 142 140 139 138 136 133 134 135 135 136 132 127 126 128 131 133 133 134 134 133 133 133 133 129 122 117 115 116 116 117 117 109 72 37 23 18 14 14 14 11 13 17 21 20 16 15 19 25 23 23 29 29 25 23 22 22 22 22 21 19 16 12 8 5 5 8 12 15 14 14 15 14 13 11 9 10 11 15
136 138 140 142 144 145 144 142 141 141 140 139 138 140 138 137 136 130 126 127 130 133 134 134 135 135 133 131 131 132 129 128 129 130 130 131 136 142 145 149 2 358 10 10 7 7 7 10 15 19 21 21 21 25 27 24 24 28 25 22 23 22 23 22 21 20 19 17 13 9 6 6 10 12 14 13 14 15 13 12 11 9 9 10 15
138 140 142 145 146 146 145 143 143 143 143 143 144 144 140 137 134 130 130 131 134 135 134 135 137 137 135 134 135 136 137 141 143 144 144 148 160 170 175 210 306 356 7 1 356 359 3 7 13 16 19 23 24 25 25 24 26 25 21 19 21 21 21 19 18 17 17 17 15 10 7 8 10 11 12 11 12 13 11 12 11 9 9 9 14
141 143 146 148 148 147 147 146 148 148 148 147 147 147 144 139 134 134 136 138 138 138 136 137 140 140 140 140 140 142 145 150 153 156 160 167 181 194 199 228 285 352 342 336 346 355 1 6 10 13 16 19 20 18 19 22 22 18 14 15 17 17 16 14 13 14 16 17 16 13 10 11 12 10 10 10 10 10 8 12 13 11 11 10 14
146 147 149 151 152 151 151 152 154 153 150 149 149 150 147 140 135 138 142 143 143 141 139 140 142 143 144 145 146 150 154 158 163 167 174 185 199 207 209 218 234 267 306 332 351 357 2 5 7 10 12 13 13 13 15 16 14 9 6 10 12 10 10 10 9 10 14 16 16 14 12 14 15 11 10 10 10 8 6 11 14 13 13 11 13
150 152 154 155 156 156 157 157 157 154 152 153 155 154 151 144 141 142 145 147 147 144 142 143 144 145 148 153 157 160 163 167 175 180 188 202 212 218 232 255 278 308 334 349 357 0 4 5 6 9 7 6 8 9 9 8 6 2 1 4 5 4 5 5 4 6 11 14 13 12 11 15 16 13 12 12 11 7 6 11 13 14 16 13 13
155 157 159 159 159 159 160 161 161 160 160 161 160 160 158 153 149 146 146 146 146 145 144 143 145 148 154 167 172 170 172 180 193 200 204 212 217 222 238 267 291 316 339 349 352 354 1 3 5 7 5 4 5 5 3 1 359 357 357 359 0 360 0 1 1 4 8 9 9 7 8 14 16 15 16 14 11 7 6 9 11 15 18 14 13
160 162 161 160 160 162 164 166 167 168 169 167 164 162 162 160 155 149 143 141 140 144 149 148 148 154 164 178 186 183 188 198 207 217 222 224 229 236 254 282 304 322 338 346 346 348 355 360 2 5 5 4 2 1 0 358 355 354 355 356 357 356 355 358 1 4 6 5 4 3 4 12 14 17 19 14 11 7 5 6 8 14 20 16 14
166 165 164 163 164 168 171 173 173 173 171 168 164 159 159 161 155 146 140 137 140 148 158 163 166 172 181 193 203 204 207 215 219 228 237 244 261 285 301 312 321 332 343 348 348 348 353 357 360 3 3 2 1 0 359 355 351 351 353 353 353 351 352 358 3 5 6 4 4 0 1 10 11 17 19 13 9 7 4 4 7 12 19 18 15
172 171 170 169 171 174 175 176 176 173 172 171 167 159 157 160 155 145 142 150 161 169 176 188 196 203 214 228 240 249 259 269 279 290 294 294 301 313 323 326 332 339 348 352 352 351 352 355 357 357 356 358 0 359 355 350 347 349 351 350 349 349 353 0 4 6 8 7 6 2 1 6 7 15 18 10 5 4 3 4 6 10 16 19 17
177 176 176 174 175 178 179 179 176 173 175 178 174 165 162 165 162 154 154 163 175 189 197 208 218 226 236 251 262 271 283 295 307 317 322 324 324 328 331 333 337 343 348 354 355 352 350 351 351 349 350 355 356 352 347 345 346 347 348 348 348 351 356 0 2 5 9 10 9 5 4 4 2 10 14 7 2 2 3 4 6 8 12 17 19
183 181 180 180 181 184 186 187 184 179 180 186 190 188 185 185 188 189 189 184 188 203 213 221 232 241 250 261 270 275 285 297 308 318 324 329 332 336 339 339 342 345 347 352 355 350 345 345 346 345 347 349 347 342 341 343 344 344 346 350 351 354 356 358 359 3 9 13 11 8 7 4 3 8 8 5 2 2 4 5 6 8 11 16 20
191 189 189 189 191 193 195 195 197 195 192 194 200 203 203 202 205 212 212 205 201 209 219 227 239 250 260 266 271 277 286 295 307 317 325 329 333 338 342 342 343 344 346 349 350 345 340 340 342 343 342 340 338 336 337 342 342 344 352 356 354 354 355 356 358 3 10 15 14 10 9 8 7 7 5 4 4 2 4 6 6 8 12 15 19
196 199 199 200 203 206 206 203 204 205 202 200 201 204 207 209 211 216 218 215 212 214 221 229 238 249 258 261 263 268 276 285 300 318 326 328 330 330 331 332 333 334 336 339 340 339 337 339 342 341 337 335 336 338 340 344 347 352 359 357 352 353 355 357 359 4 11 15 15 13 14 14 11 7 4 4 5 4 4 5 6 9 13 16 18
199 203 204 204 208 211 211 209 209 207 204 201 200 202 204 205 209 212 214 215 214 215 220 227 231 237 246 250 254 257 258 268 287 302 312 316 319 320 318 319 321 323 326 329 331 330 334 341 343 337 332 335 340 342 346 351 353 356 356 353 351 354 357 358 1 6 11 13 14 13 16 17 13 8 6 4 5 6 5 7 9 11 16 18 19
207 207 207 207 209 210 210 209 209 208 205 203 202 202 201 200 205 206 205 207 208 210 214 217 220 226 234 239 241 243 247 265 282 290 298 305 311 315 314 314 316 317 319 322 323 322 328 337 340 334 330 338 347 347 350 353 350 352 352 351 354 356 358 1 3 6 9 10 11 12 15 16 11 8 7 6 6 7 9 12 12 15 19 20 19
215 212 211 210 210 212 211 210 213 212 209 210 210 208 203 199 200 204 205 204 204 206 209 210 212 218 226 232 233 239 250 264 277 287 293 298 304 311 314 314 315 315 315 321 321 315 321 330 338 340 332 336 349 349 346 344 342 348 352 354 358 359 359 0 3 6 8 8 10 12 14 14 11 9 8 8 8 9 12 17 16 17 21 22 21
221 221 219 216 213 214 215 214 216 218 217 218 219 215 210 206 204 206 210 211 210 211 212 214 217 222 230 237 242 248 255 264 271 278 285 290 296 303 309 311 312 314 318 326 325 316 318 324 330 336 330 329 340 339 334 334 339 348 353 356 358 359 357 356 358 2 5 6 9 12 15 13 11 11 12 11 10 9 11 17 19 18 19 20 23
225 228 229 226 222 220 221 220 220 221 222 224 224 223 220 217 215 215 216 219 221 222 224 225 227 231 237 242 249 257 265 271 272 273 278 283 287 292 299 306 311 316 319 325 324 316 318 321 321 325 328 330 331 330 332 334 339 346 352 353 354 354 352 350 350 354 358 1 3 6 9 9 8 10 13 13 11 9 9 14 18 18 16 16 19
227 229 232 233 232 230 229 228 225 223 225 226 227 228 227 225 225 224 225 226 227 228 230 233 234 235 238 243 250 261 272 280 281 282 283 283 283 284 291 302 308 311 310 313 315 312 314 318 319 323 327 327 325 328 330 332 335 340 345 346 346 348 350 347 346 347 351 354 355 356 358 359 1 3 6 10 10 8 8 11 16 17 14 12 14
227 230 232 232 233 235 236 235 230 225 225 226 226 226 226 226 226 226 227 228 228 227 226 228 232 235 239 245 247 253 264 272 280 289 294 295 294 291 291 296 299 299 298 301 303 303 305 310 313 316 317 317 317 321 324 325 327 331 336 340 342 345 346 344 342 342 346 349 348 347 348 351 353 354 356 3 7 7 6 9 13 14 12 9 9
225 228 230 231 232 233 234 234 232 228 225 224 224 225 224 224 224 224 225 228 229 230 229 229 230 234 239 246 250 256 261 261 261 268 281 290 295 296 296 298 294 291 290 291 294 295 295 299 302 303 305 308 311 313 316 319 321 325 331 336 337 339 342 341 339 339 343 346 342 339 340 343 346 347 348 354 359 1 4 6 9 10 9 7 6
225 225 225 227 229 231 232 231 230 228 225 223 223 223 222 222 224 223 222 226 229 232 234 234 236 240 245 250 255 262 265 261 253 251 257 270 279 286 291 294 295 294 294 295 296 295 295 296 299 300 302 305 306 306 309 314 319 322 327 332 333 334 339 341 338 337 340 342 337 332 334 337 339 342 343 346 349 353 358 1 2 2 4 5 6
225 225 223 223 226 228 229 229 228 228 227 226 225 225 224 223 224 224 223 225 227 230 232 235 239 244 248 253 260 267 272 272 270 268 268 270 272 275 280 286 293 293 292 292 292 292 293 294 297 299 299 299 300 300 304 309 313 316 321 327 329 330 335 339 337 334 335 335 332 330 331 333 336 339 341 340 342 346 351 353 353 353 356 0 2
228 227 225 224 224 226 228 229 230 230 229 230 230 229 229 229 228 227 227 226 227 229 230 232 236 239 243 248 254 259 265 270 275 278 280 282 283 283 285 287 289 289 288 287 287 286 287 287 288 290 292 293 294 295 299 304 307 309 313 320 325 325 328 333 332 329 328 329 328 328 329 331 333 336 337 336 338 342 344 345 345 346 348 350 353
232 231 230 229 228 228 229 230 231 231 231 231 233 232 231 232 232 231 231 231 232 233 234 235 238 240 242 244 248 253 257 260 264 269 273 277 280 282 285 287 289 290 289 289 288 287 287 286 285 284 285 288 290 292 296 301 304 306 309 313 317 317 319 323 325 323 322 325 326 325 327 329 330 333 333 333 336 338 339 340 341 341 341 342 344
237 237 236 236 235 235 235 234 233 233 232 232 234 235 233 232 233 233 234 234 235 237 239 240 242 245 246 247 250 254 258 261 264 267 269 270 272 276 281 286 290 292 292 291 290 290 290 290 289 289 289 290 291 291 292 295 299 303 307 310 312 313 314 317 319 318 316 318 321 321 323 326 328 328 328 329 329 331 334 337 337 337 336 336 338
240 241 241 241 242 243 243 243 240 238 235 234 235 236 236 235 235 236 236 236 238 239 241 243 245 247 249 250 251 254 258 261 264 267 269 270 271 273 276 280 284 286 288 289 289 291 292 292 293 294 295 295 294 292 292 293 296 299 303 306 308 311 313 314 316 314 311 312 315 316 319 323 326 327 328 326 324 325 329 332 333 331 330 330 333
243 244 245 245 245 246 248 248 248 245 242 239 238 238 238 238 238 239 239 238 238 239 241 244 247 248 250 252 255 257 259 260 262 264 268 271 272 273 275 277 279 279 280 283 285 287 289 290 291 292 294 294 294 295 294 294 296 298 299 301 303 306 310 311 313 311 308 308 312 314 317 322 325 328 329 326 323 323 325 327 327 325 323 323 326
246 247 249 249 249 249 249 249 249 250 249 247 245 243 242 241 241 242 242 242 241 241 243 246 248 250 252 254 256 258 260 261 263 264 266 269 270 272 274 276 278 279 279 281 283 283 284 286 288 289 290 291 293 294 295 295 297 298 298 299 300 302 305 306 308 307 304 304 308 311 313 317 319 322 324 324 323 322 323 323 322 320 319 319 321
245 246 248 249 251 251 251 250 249 249 250 251 250 249 248 246 245 245 245 245 245 245 246 247 249 250 251 253 255 257 259 260 261 262 264 267 269 271 274 276 278 278 278 280 280 280 282 285 286 287 288 288 290 291 291 293 294 295 296 297 297 298 299 301 303 304 302 303 306 308 309 311 312 314 317 320 320 319 320 319 318 317 317 317 319
244 243 244 245 246 248 249 250 250 249 248 249 250 251 251 251 250 250 250 250 249 248 248 248 249 249 249 251 253 254 256 258 260 264 268 272 274 274 275 277 278 279 280 280 280 280 283 286 287 288 288 289 289 289 288 288 289 291 293 294 294 293 293 295 297 300 300 302 305 307 307 308 310 311 313 316 316 315 315 315 314 314 315 316 318
245 243 243 243 244 245 246 246 248 249 249 249 248 249 250 251 251 251 252 253 252 251 251 251 250 251 251 251 252 254 257 259 263 265 266 268 269 268 270 274 279 282 282 282 282 283 284 286 287 288 290 289 288 287 286 286 286 287 288 290 290 290 289 290 292 294 296 299 302 304 304 305 308 309 310 312 312 311 312 311 311 312 313 314 316
248 247 245 245 244 245 246 246 246 247 248 250 251 251 251 252 251 251 252 253 252 252 252 252 252 253 253 254 254 256 258 261 263 263 261 260 261 262 265 270 275 278 281 281 282 282 283 285 286 288 291 291 288 286 285 285 284 284 285 286 287 288 288 288 289 290 292 295 298 298 299 300 302 303 305 308 308 307 308 308 307 308 309 310 312
248 251 250 248 246 246 247 248 248 249 249 251 254 255 255 255 255 254 253 254 255 254 253 253 253 253 253 255 256 257 259 260 261 261 261 261 261 261 262 266 270 273 277 279 279 279 280 282 283 285 288 289 289 287 284 283 283 283 283 284 285 286 287 287 288 290 291 292 293 294 294 295 296 298 299 301 301 301 302 303 302 303 304 305 308
243 248 250 250 247 246 246 247 249 250 249 249 252 256 259 260 260 258 257 256 257 258 257 256 256 255 255 256 256 257 258 259 259 259 260 261 263 264 265 268 270 271 274 278 279 279 280 281 282 283 283 284 285 286 285 284 284 284 284 283 282 283 284 285 286 287 287 288 290 291 292 292 293 294 295 295 294 295 297 298 299 299 299 300 303
238 239 243 248 249 247 246 246 247 248 248 247 248 253 259 263 264 261 259 257 257 259 259 259 258 258 258 257 257 257 257 258 258 258 259 260 262 265 268 269 270 272 275 279 280 281 283 284 283 282 280 280 281 281 281 282 283 284 283 282 280 279 280 281 282 282 284 286 289 290 290 290 289 290 290 290 291 292 294 296 297 297 296 296 298
237 237 238 243 248 248 246 247 247 247 247 246 243 241 245 255 262 262 259 258 257 258 259 259 259 259 259 258 258 257 256 255 256 256 258 259 261 265 269 269 268 268 272 278 282 283 285 286 285 282 279 279 279 278 278 279 280 280 280 279 278 277 276 276 277 279 282 285 287 287 287 287 287 288 288 287 289 290 292 294 296 296 296 294 295
235 237 238 240 243 244 243 243 244 245 246 244 241 236 234 243 254 259 257 256 256 255 255 256 257 258 259 259 260 259 257 256 256 256 258 260 263 267 272 273 270 269 272 278 280 278 278 281 283 280 277 277 279 278 278 279 280 279 277 276 275 275 275 274 274 276 279 281 282 283 284 285 286 287 288 288 288 288 289 291 293 295 295 294 293
Height
5917 5917 5919 5920 5922 5924 5926 5928 5929 5930 5932 5933 5934 5935 5936 5937 5937 5938 5939 5939 5939 5939 5939 5939 5940 5940 5941 5942 5942 5943 5943 5944 5944 5945 5945 5946 5946 5946 5946 5946 5946 5946 5945 5945 5945 5945 5944 5944 5944 5943 5943 5942 5941 5940 5940 5939 5939 5938 5937 5936 5935 5933 5932 5930 5928 5926 5924 5922 5921 5920 5919 5920 5920 5920 5919 5917 5915 5913 5911 5910 5908 5907 5905 5903 5901
5918 5919 5920 5922 5924 5926 5927 5929 5930 5931 5933 5934 5935 5936 5937 5938 5938 5939 5939 5939 5939 5939 5939 5940 5940 5941 5942 5942 5943 5943 5944 5945 5945 5946 5946 5946 5947 5947 5947 5947 5947 5946 5946 5946 5945 5945 5945 5945 5944 5944 5943 5942 5941 5941 5940 5939 5939 5938 5937 5936 5935 5933 5932 5930 5929 5927 5925 5923 5921 5919 5918 5918 5918 5918 5918 5917 5915 5913 5911 5909 5907 5905 5904 5902 5899
5920 5921 5922 5924 5925 5927 5928 5929 5931 5932 5933 5935 5936 5937 5938 5938 5939 5939 5940 5940 5939 5939 5940 5940 5941 5942 5943 5943 5944 5944 5945 5945 5946 5947 5947 5947 5948 5948 5948 5948 5947 5947 5947 5946 5946 5946 5945 5945 5945 5944 5943 5942 5942 5941 5940 5939 5938 5938 5937 5936 5934 5933 5932 5930 5929 5927 5925 5923 5921 5920 5918 5917 5917 5916 5916 5915 5914 5912 5910 5908 5905 5903 5901 5900 5898
5922 5923 5924 5925 5927 5928 5929 5930 5932 5933 5934 5936 5936 5937 5939 5939 5940 5940 5940 5940 5940 5940 5940 5941 5942 5943 5943 5944 5944 5945 5945 5946 5947 5947 5948 5948 5948 5948 5948 5948 5948 5948 5947 5947 5947 5946 5946 5946 5945 5944 5944 5943 5942 5941 5940 5939 5938 5938 5937 5936 5935 5933 5932 5930 5929 5927 5925 5924 5922 5920 5919 5917 5916 5915 5914 5913 5912 5910 5909 5907 5905 5902 5900 5898 5896
5923 5925 5926 5927 5928 5929 5930 5931 5933 5934 5935 5936 5937 5938 5940 5940 5941 5941 5941 5940 5940 5941 5941 5942 5943 5944 5944 5944 5945 5945 5946 5947 5948 5948 5949 5949 5949 5949 5949 5949 5949 5948 5948 5948 5947 5947 5947 5946 5946 5945 5944 5943 5942 5941 5941 5940 5939 5938 5937 5936 5935 5934 5932 5931 5929 5928 5926 5924 5923 5921 5920 5918 5916 5915 5913 5911 5910 5908 5907 5905 5904 5901 5899 5897 5894
5924 5926 5927 5928 5929 5931 5932 5933 5934 5935 5937 5937 5938 5939 5941 5941 5941 5941 5941 5941 5941 5941 5942 5943 5944 5944 5945 5945 5945 5946 5946 5947 5948 5949 5949 5949 5950 5950 5950 5949 5949 5949 5949 5948 5948 5948 5947 5946 5946 5945 5944 5944 5943 5942 5941 5940 5939 5938 5938 5937 5935 5934 5933 5931 5930 5928 5927 5925 5924 5922 5921 5919 5917 5915 5913 5911 5909 5907 5906 5904 5903 5901 5898 5896 5894
5925 5927 5928 5929 5931 5932 5933 5934 5936 5937 5938 5939 5939 5940 5941 5942 5942 5942 5941 5941 5941 5942 5943 5944 5945 5945 5945 5945 5946 5946 5947 5948 5949 5949 5950 5950 5950 5950 5950 5950 5950 5950 5949 5949 5948 5948 5947 5946 5946 5945 5945 5944 5943 5942 5941 5940 5940 5939 5938 5937 5936 5934 5933 5931 5930 5928 5927 5926 5925 5923 5922 5920 5918 5916 5914 5911 5909 5907 5906 5904 5902 5900 5898 5895 5893
5927 5928 5929 5931 5932 5933 5935 5936 5937 5938 5939 5940 5941 5941 5941 5942 5942 5942 5942 5942 5942 5943 5944 5945 5945 5946 5946 5946 5946 5947 5947 5948 5949 5949 5950 5950 5950 5951 5951 5950 5950 5950 5950 5949 5949 5948 5947 5947 5946 5945 5945 5944 5943 5943 5942 5941 5940 5939 5938 5937 5936 5935 5933 5932 5930 5929 5928 5926 5925 5924 5922 5921 5919 5917 5914 5912 5909 5908 5906 5904 5902 5899 5897 5895 5893
5928 5929 5931 5932 5933 5934 5936 5937 5938 5939 5940 5941 5942 5942 5942 5942 5942 5943 5943 5943 5943 5944 5944 5945 5946 5946 5946 5946 5947 5947 5948 5949 5949 5950 5950 5950 5951 5951 5951 5951 5950 5950 5950 5950 5949 5948 5948 5947 5946 5946 5945 5944 5944 5943 5942 5941 5940 5940 5939 5938 5936 5935 5934 5932 5930 5929 5928 5927 5926 5924 5923 5921 5919 5917 5915 5912 5910 5908 5906 5904 5902 5899 5897 5894 5892
5930 5931 5932 5933 5934 5935 5936 5938 5939 5940 5941 5942 5942 5942 5942 5943 5943 5944 5943 5944 5944 5944 5945 5945 5946 5946 5947 5947 5948 5948 5948 5949 5949 5950 5950 5951 5951 5951 5951 5951 5951 5950 5950 5950 5949 5949 5948 5947 5946 5946 5945 5945 5944 5943 5943 5942 5941 5940 5939 5938 5937 5936 5934 5933 5931 5929 5928 5927 5926 5924 5923 5922 5920 5918 5915 5913 5910 5909 5907 5904 5902 5900 5897 5894 5892
5932 5932 5933 5934 5935 5936 5937 5939 5940 5941 5941 5942 5943 5943 5943 5944 5944 5944 5944 5944 5944 5944 5945 5945 5946 5946 5947 5947 5948 5948 5949 5949 5949 5950 5950 5951 5951 5951 5951 5951 5951 5950 5950 5950 5949 5949 5948 5947 5947 5946 5945 5945 5944 5943 5943 5942 5941 5940 5939 5938 5937 5936 5935 5933 5931 5930 5928 5927 5926 5925 5923 5922 5920 5918 5915 5913 5911 5909 5907 5905 5902 5900 5897 5894 5891
5933 5934 5935 5935 5936 5937 5938 5939 5940 5941 5942 5943 5943 5943 5944 5944 5945 5945 5945 5944 5945 5945 5945 5946 5946 5947 5947 5947 5948 5948 5949 5949 5949 5950 5950 5951 5951 5951 5952 5951 5951 5951 5950 5950 5950 5949 5948 5948 5947 5946 5946 5945 5944 5943 5943 5942 5941 5940 5939 5938 5937 5936 5935 5933 5932 5930 5929 5927 5926 5925 5924 5922 5920 5918 5916 5914 5912 5909 5907 5905 5902 5900 5897 5894 5891
5934 5935 5936 5937 5938 5938 5939 5940 5941 5942 5942 5943 5943 5943 5944 5945 5946 5946 5945 5945 5945 5945 5946 5946 5947 5947 5947 5948 5948 5949 5949 5949 5950 5950 5951 5951 5951 5952 5952 5952 5952 5951 5951 5950 5950 5949 5949 5948 5947 5946 5946 5945 5944 5944 5943 5942 5942 5941 5940 5939 5938 5936 5935 5934 5932 5930 5929 5927 5926 5925 5924 5922 5920 5918 5916 5914 5912 5909 5907 5905 5903 5900 5897 5894 5891
5935 5936 5937 5938 5939 5940 5940 5941 5942 5942 5943 5943 5944 5944 5945 5945 5946 5946 5946 5946 5946 5946 5946 5947 5947 5948 5948 5948 5949 5949 5949 5950 5950 5950 5951 5951 5952 5952 5952 5952 5952 5951 5951 5951 5950 5949 5949 5948 5947 5946 5946 5945 5945 5944 5943 5943 5942 5941 5940 5939 5938 5937 5935 5934 5933 5931 5929 5928 5927 5925 5924 5923 5921 5919 5917 5914 5912 5910 5907 5905 5903 5900 5897 5895 5892
5937 5938 5938 5939 5940 5941 5941 5942 5943 5943 5943 5944 5944 5945 5945 5946 5946 5946 5946 5946 5946 5946 5947 5947 5948 5948 5948 5948 5949 5949 5949 5950 5950 5950 5951 5951 5952 5952 5952 5952 5952 5952 5951 5951 5950 5949 5949 5948 5947 5947 5946 5945 5945 5944 5943 5943 5942 5941 5940 5939 5938 5937 5936 5934 5933 5931 5929 5928 5926 5925 5924 5923 5921 5919 5917 5915 5913 5911 5908 5906 5904 5901 5898 5895 5892
5938 5939 5939 5940 5941 5942 5942 5943 5944 5944 5944 5944 5945 5946 5946 5946 5946 5946 5946 5946 5947 5947 5947 5948 5948 5948 5948 5948 5949 5949 5950 5950 5950 5951 5951 5951 5952 5952 5952 5952 5951 5951 5951 5951 5950 5950 5949 5948 5948 5947 5946 5945 5945 5944 5943 5943 5942 5942 5941 5940 5939 5937 5936 5935 5933 5931 5929 5928 5926 5926 5925 5923 5922 5920 5918 5916 5913 5911 5909 5907 5905 5902 5899 5896 5893
5939 5940 5940 5941 5942 5943 5943 5944 5944 5945 5945 5945 5946 5946 5947 5947 5946 5946 5947 5947 5947 5948 5948 5948 5949 5949 5949 5949 5949 5949 5950 5950 5951 5951 5951 5951 5951 5951 5952 5952 5951 5951 5951 5951 5950 5950 5949 5949 5948 5947 5946 5945 5945 5944 5944 5943 5943 5942 5941 5940 5939 5938 5936 5935 5933 5931 5929 5928 5927 5926 5925 5924 5922 5921 5919 5916 5914 5912 5910 5908 5905 5903 5899 5897 5894
5939 5940 5941 5942 5942 5943 5944 5945 5945 5945 5945 5946 5946 5947 5947 5947 5947 5947 5947 5948 5948 5948 5949 5949 5949 5950 5950 5950 5950 5950 5950 5951 5951 5951 5951 5951 5951 5951 5951 5952 5951 5951 5951 5951 5950 5950 5949 5949 5948 5947 5946 5946 5945 5944 5944 5943 5943 5942 5941 5940 5939 5938 5936 5935 5933 5932 5930 5928 5927 5926 5925 5924 5923 5921 5919 5917 5915 5913 5911 5908 5906 5903 5900 5897 5895
5940 5941 5942 5942 5943 5944 5944 5945 5945 5946 5946 5946 5947 5947 5947 5947 5947 5948 5948 5949 5949 5949 5950 5950 5950 5950 5950 5951 5951 5951 5951 5951 5951 5952 5952 5952 5952 5952 5952 5952 5952 5951 5951 5951 5950 5950 5949 5949 5948 5947 5946 5946 5945 5945 5944 5943 5942 5941 5941 5940 5939 5937 5936 5935 5934 5932 5930 5928 5927 5926 5925 5924 5923 5922 5919 5917 5916 5914 5911 5909 5907 5904 5901 5898 5896
5941 5941 5942 5942 5943 5944 5944 5945 5945 5946 5946 5947 5947 5947 5947 5948 5948 5948 5949 5949 5950 5950 5950 5950 5950 5950 5951 5951 5951 5951 5951 5951 5952 5952 5952 5952 5952 5952 5952 5952 5951 5951 5951 5951 5950 5950 5949 5948 5948 5947 5946 5946 5945 5945 5944 5943 5942 5941 5940 5939 5938 5937 5936 5935 5934 5932 5930 5928 5927 5926 5925 5924 5923 5922 5919 5918 5916 5914 5912 5909 5907 5905 5902 5900 5897
5941 5942 5942 5943 5943 5944 5944 5945 5945 5946 5946 5947 5947 5947 5947 5948 5948 5948 5949 5949 5950 5950 5951 5951 5951 5951 5951 5951 5951 5951 5951 5952 5952 5952 5953 5953 5952 5952 5952 5952 5951 5951 5951 5950 5950 5949 5949 5948 5948 5947 5946 5945 5945 5944 5944 5942 5941 5940 5939 5938 5938 5937 5936 5935 5933 5932 5930 5928 5927 5926 5925 5924 5923 5921 5919 5918 5916 5914 5912 5910 5907 5905 5903 5901 5898
5941 5942 5942 5943 5943 5944 5944 5945 5945 5946 5946 5946 5947 5947 5947 5948 5948 5948 5949 5949 5950 5950 5950 5951 5951 5951 5951 5951 5951 5951 5952 5952 5952 5953 5953 5953 5953 5952 5952 5952 5951 5951 5950 5950 5949 5949 5948 5948 5947 5946 5945 5945 5945 5944 5943 5942 5941 5940 5939 5938 5938 5937 5936 5934 5933 5931 5929 5928 5927 5926 5925 5924 5923 5921 5920 5918 5916 5914 5913 5910 5908 5905 5904 5902 5900
5941 5942 5942 5943 5943 5944 5944 5945 5945 5945 5946 5946 5946 5947 5947 5947 5948 5948 5949 5949 5950 5950 5950 5951 5951 5951 5951 5951 5951 5951 5952 5952 5953 5953 5953 5953 5953 5952 5952 5952 5951 5950 5950 5949 5949 5948 5948 5947 5947 5946 5945 5945 5944 5944 5943 5942 5941 5940 5939 5938 5938 5937 5935 5934 5932 5931 5929 5928 5927 5926 5925 5924 5923 5921 5920 5918 5916 5914 5913 5911 5908 5906 5904 5902 5901
5940 5941 5942 5942 5943 5944 5944 5945 5945 5945 5945 5946 5946 5946 5947 5947 5948 5948 5949 5949 5950 5950 5951 5951 5951 5951 5951 5951 5951 5952 5952 5953 5953 5953 5953 5953 5953 5952 5952 5951 5951 5950 5949 5949 5948 5948 5947 5947 5946 5946 5945 5945 5944 5943 5942 5941 5941 5940 5939 5939 5938 5936 5935 5933 5932 5930 5929 5928 5927 5925 5924 5923 5922 5921 5920 5918 5916 5915 5913 5911 5909 5906 5904 5903 5901
5940 5940 5941 5942 5943 5943 5944 5944 5944 5945 5945 5946 5946 5946 5947 5947 5948 5948 5949 5949 5950 5950 5951 5951 5951 5951 5951 5951 5952 5952 5952 5953 5953 5953 5953 5952 5952 5952 5951 5951 5950 5950 5949 5948 5948 5948 5947 5947 5946 5946 5945 5945 5944 5943 5942 5942 5941 5940 5939 5939 5938 5936 5935 5933 5932 5930 5929 5928 5927 5926 5924 5923 5922 5921 5919 5918 5916 5915 5913 5911 5909 5907 5905 5903 5902
5939 5940 5940 5941 5942 5942 5943 5943 5944 5945 5945 5945 5946 5946 5946 5947 5947 5948 5948 5949 5950 5950 5951 5951 5951 5951 5951 5951 5952 5952 5952 5953 5953 5952 5952 5952 5952 5951 5951 5950 5950 5949 5949 5948 5948 5948 5947 5947 5946 5946 5946 5945 5944 5943 5942 5942 5941 5940 5939 5939 5937 5936 5935 5934 5932 5931 5929 5928 5927 5925 5924 5923 5922 5920 5919 5918 5916 5915 5913 5911 5909 5908 5906 5904 5902
5938 5939 5939 5940 5941 5942 5943 5943 5944 5944 5945 5945 5945 5946 5946 5946 5947 5947 5948 5949 5949 5950 5950 5951 5951 5951 5951 5951 5951 5952 5952 5952 5952 5952 5952 5952 5952 5951 5951 5950 5949 5949 5948 5948 5948 5947 5947 5947 5947 5946 5946 5945 5944 5943 5942 5941 5941 5940 5939 5938 5937 5936 5935 5934 5932 5931 5929 5928 5926 5925 5924 5923 5921 5920 5919 5918 5916 5915 5913 5911 5910 5908 5906 5905 5903
5938 5938 5939 5939 5940 5941 5942 5942 5943 5944 5944 5944 5945 5945 5946 5946 5946 5947 5948 5948 5949 5949 5950 5950 5951 5951 5951 5951 5951 5951 5951 5952 5952 5952 5952 5952 5951 5951 5950 5950 5949 5949 5948 5948 5948 5947 5947 5947 5947 5946 5945 5945 5944 5943 5942 5941 5941 5940 5939 5938 5937 5936 5935 5934 5932 5931 5929 5928 5926 5925 5924 5923 5921 5920 5919 5917 5916 5915 5913 5912 5910 5908 5907 5905 5904
5937 5938 5938 5939 5939 5940 5941 5941 5942 5943 5943 5944 5944 5945 5945 5946 5946 5947 5947 5948 5948 5949 5949 5950 5950 5950 5950 5950 5950 5950 5950 5951 5951 5951 5951 5951 5950 5950 5949 5949 5949 5948 5948 5948 5947 5947 5946 5946 5946 5946 5945 5944 5943 5943 5942 5941 5940 5940 5939 5938 5937 5936 5934 5933 5932 5931 5929 5928 5927 5925 5924 5923 5922 5921 5919 5918 5916 5914 5913 5912 5910 5909 5907 5906 5905
5937 5937 5938 5938 5938 5939 5940 5941 5941 5942 5942 5943 5944 5944 5945 5945 5946 5946 5947 5947 5948 5948 5949 5949 5949 5949 5949 5949 5949 5949 5949 5949 5950 5950 5950 5950 5949 5949 5949 5948 5948 5947 5947 5947 5947 5946 5946 5946 5945 5945 5944 5944 5943 5942 5942 5941 5940 5940 5939 5938 5937 5936 5934 5933 5931 5930 5929 5928 5926 5925 5924 5923 5922 5921 5920 5918 5916 5915 5913 5912 5911 5909 5907 5906 5905
5936 5937 5937 5938 5938 5939 5939 5940 5941 5941 5941 5942 5943 5943 5944 5944 5945 5945 5946 5947 5947 5948 5948 5948 5948 5948 5948 5948 5948 5948 5948 5948 5948 5948 5948 5948 5948 5948 5947 5947 5947 5946 5946 5946 5946 5946 5945 5945 5945 5944 5944 5943 5943 5942 5941 5941 5940 5939 5939 5938 5937 5935 5934 5933 5931 5930 5929 5927 5926 5925 5924 5923 5922 5921 5920 5918 5917 5915 5914 5912 5911 5909 5908 5907 5906
5935 5935 5936 5937 5938 5938 5939 5939 5939 5940 5940 5941 5942 5942 5943 5943 5944 5944 5945 5946 5946 5947 5947 5947 5947 5947 5947 5947 5947 5947 5947 5947 5947 5947 5947 5947 5946 5946 5946 5946 5945 5945 5945 5945 5945 5945 5945 5945 5945 5944 5944 5943 5942 5942 5941 5941 5940 5939 5938 5938 5936 5935 5934 5933 5931 5930 5929 5927 5926 5924 5923 5923 5922 5920 5919 5918 5917 5916 5914 5913 5912 5910 5909 5907 5906
5933 5934 5935 5936 5937 5937 5938 5938 5938 5939 5939 5940 5940 5941 5941 5942 5943 5943 5944 5945 5945 5946 5946 5946 5946 5946 5946 5946 5946 5946 5946 5946 5946 5946 5946 5945 5945 5945 5945 5945 5944 5944 5944 5944 5944 5944 5944 5944 5944 5944 5943 5942 5942 5941 5941 5940 5940 5939 5938 5938 5936 5935 5934 5933 5931 5930 5929 5928 5926 5924 5923 5922 5921 5920 5919 5918 5917 5916 5915 5913 5912 5911 5909 5908 5906
5931 5932 5933 5934 5935 5936 5936 5937 5937 5938 5938 5938 5939 5939 5940 5940 5941 5942 5943 5943 5944 5944 5944 5945 5945 5945 5945 5945 5945 5945 5945 5945 5945 5945 5944 5944 5944 5944 5944 5944 5944 5943 5943 5943 5943 5943 5943 5943 5943 5943 5942 5942 5941 5940 5940 5939 5939 5938 5938 5937 5936 5935 5934 5933 5932 5930 5929 5928 5926 5925 5924 5922 5921 5920 5919 5918 5917 5916 5914 5913 5912 5911 5910 5908 5907
5929 5930 5931 5932 5933 5934 5935 5936 5936 5937 5937 5937 5937 5938 5938 5939 5939 5940 5941 5942 5942 5943 5943 5943 5944 5944 5944 5944 5944 5944 5944 5944 5944 5944 5943 5943 5943 5943 5943 5943 5943 5943 5942 5942 5942 5942 5942 5942 5941 5941 5941 5941 5940 5939 5939 5938 5937 5937 5936 5936 5935 5935 5934 5933 5931 5930 5929 5928 5927 5925 5924 5922 5921 5920 5919 5918 5916 5915 5914 5913 5911 5910 5909 5909 5907
5927 5928 5929 5930 5931 5932 5933 5934 5935 5935 5936 5936 5936 5937 5937 5937 5938 5939 5939 5940 5940 5941 5941 5942 5942 5942 5943 5943 5943 5943 5943 5943 5943 5943 5943 5942 5942 5942 5942 5942 5942 5942 5941 5941 5941 5941 5941 5940 5940 5940 5940 5940 5939 5938 5937 5937 5936 5936 5935 5935 5934 5933 5933 5932 5931 5930 5929 5928 5927 5925 5924 5923 5921 5920 5919 5918 5916 5915 5913 5912 5911 5910 5909 5908 5907
5926 5926 5927 5928 5929 5930 5931 5932 5933 5934 5934 5935 5935 5935 5936 5936 5936 5937 5937 5938 5938 5939 5939 5940 5940 5941 5941 5941 5942 5942 5942 5942 5942 5942 5942 5942 5941 5941 5941 5941 5941 5941 5940 5940 5940 5940 5939 5939 5939 5939 5939 5939 5938 5937 5936 5935 5935 5934 5934 5934 5933 5932 5932 5931 5930 5929 5928 5927 5926 5924 5923 5923 5922 5921 5919 5918 5916 5915 5913 5912 5911 5909 5908 5907 5906
5924 5925 5926 5927 5927 5928 5929 5930 5931 5932 5933 5933 5934 5934 5934 5935 5935 5936 5936 5936 5937 5937 5938 5938 5938 5939 5939 5940 5940 5940 5940 5940 5940 5941 5941 5941 5940 5940 5940 5940 5940 5940 5939 5939 5938 5938 5938 5938 5938 5938 5938 5937 5937 5936 5935 5934 5933 5932 5931 5931 5932 5931 5930 5930 5929 5927 5926 5926 5924 5923 5922 5922 5921 5920 5919 5918 5916 5915 5913 5912 5911 5909 5908 5907 5906
5922 5923 5924 5925 5925 5926 5927 5928 5929 5930 5931 5931 5932 5932 5933 5933 5933 5934 5934 5935 5935 5935 5936 5936 5937 5937 5937 5938 5938 5938 5939 5939 5939 5939 5939 5939 5939 5939 5939 5939 5939 5938 5938 5937 5937 5937 5937 5936 5936 5936 5936 5936 5936 5935 5934 5933 5932 5931 5929 5929 5929 5929 5929 5928 5927 5926 5924 5924 5923 5922 5921 5921 5920 5920 5919 5917 5916 5914 5913 5912 5911 5909 5908 5906 5905
5920 5921 5922 5923 5923 5924 5925 5926 5927 5928 5928 5929 5929 5930 5931 5931 5931 5932 5932 5933 5933 5933 5934 5934 5934 5935 5935 5936 5936 5936 5936 5937 5937 5937 5937 5937 5937 5937 5937 5937 5937 5937 5937 5936 5936 5935 5935 5935 5934 5934 5934 5934 5934 5933 5933 5932 5931 5930 5929 5928 5927 5927 5927 5926 5926 5924 5922 5921 5921 5920 5920 5920 5919 5919 5918 5917 5915 5914 5913 5911 5910 5909 5908 5906 5905
5917 5918 5920 5921 5921 5922 5923 5923 5924 5925 5926 5926 5927 5927 5928 5929 5929 5930 5930 5931 5931 5931 5932 5932 5932 5933 5933 5933 5934 5934 5934 5935 5935 5935 5935 5935 5935 5935 5935 5935 5935 5935 5935 5934 5934 5933 5933 5932 5932 5932 5932 5931 5931 5931 5931 5930 5929 5929 5928 5927 5926 5925 5924 5924 5923 5922 5920 5919 5919 5918 5918 5918 5917 5917 5916 5915 5914 5913 5911 5910 5909 5908 5907 5906 5904
5913 5915 5916 5917 5919 5919 5920 5921 5922 5923 5924 5924 5924 5925 5925 5926 5927 5927 5928 5929 5929 5929 5929 5930 5930 5930 5931 5931 5931 5932 5932 5932 5932 5932 5932 5932 5932 5932 5933 5933 5933 5933 5933 5932 5932 5931 5931 5930 5930 5929 5929 5928 5928 5928 5928 5927 5927 5926 5926 5925 5924 5923 5923 5922 5921 5920 5918 5917 5917 5916 5915 5915 5915 5915 5914 5914 5912 5911 5910 5909 5907 5906 5905 5904 5903
5909 5910 5912 5913 5915 5916 5916 5917 5918 5920 5920 5921 5921 5922 5923 5923 5924 5925 5926 5926 5927 5927 5927 5927 5927 5927 5928 5928 5928 5929 5929 5929 5930 5929 5930 5930 5930 5930 5930 5930 5930 5930 5930 5930 5930 5930 5929 5928 5927 5927 5926 5926 5925 5925 5925 5924 5924 5923 5923 5922 5921 5921 5920 5920 5919 5918 5916 5915 5914 5914 5913 5913 5913 5912 5912 5912 5911 5909 5908 5907 5906 5905 5904 5902 5901
5905 5906 5907 5908 5909 5911 5912 5913 5914 5915 5916 5917 5917 5918 5919 5920 5921 5922 5923 5924 5924 5924 5924 5924 5924 5924 5925 5925 5925 5926 5926 5927 5927 5927 5928 5928 5928 5928 5928 5928 5928 5928 5928 5927 5927 5927 5927 5926 5925 5925 5924 5924 5923 5922 5922 5921 5921 5920 5920 5919 5918 5918 5918 5917 5917 5915 5913 5912 5911 5910 5909 5909 5910 5910 5909 5909 5909 5908 5906 5905 5904 5903 5902 5901 5900
5900 5901 5902 5903 5904 5905 5907 5908 5910 5911 5911 5912 5913 5914 5915 5916 5918 5919 5920 5920 5920 5921 5921 5921 5921 5921 5921 5922 5922 5923 5923 5924 5925 5925 5925 5926 5925 5924 5925 5925 5925 5925 5925 5924 5924 5924 5924 5924 5923 5922 5922 5921 5920 5920 5919 5918 5918 5917 5916 5916 5915 5915 5915 5915 5914 5913 5911 5910 5909 5907 5906 5906 5906 5906 5906 5906 5906 5905 5905 5904 5903 5902 5901 5899 5898
5896 5897 5898 5899 5900 5901 5902 5903 5905 5906 5906 5907 5908 5909 5911 5912 5914 5915 5916 5916 5916 5917 5918 5918 5918 5918 5918 5918 5919 5920 5920 5921 5921 5920 5920 5921 5921 5921 5922 5922 5922 5922 5922 5922 5921 5921 5921 5921 5920 5920 5919 5918 5917 5916 5916 5915 5914 5914 5913 5912 5912 5912 5911 5911 5911 5910 5908 5907 5906 5905 5903 5902 5903 5903 5903 5903 5903 5902 5902 5902 5901 5900 5899 5898 5896
5893 5894 5895 5895 5895 5896 5898 5899 5901 5901 5902 5903 5904 5906 5907 5908 5910 5911 5912 5913 5913 5914 5914 5914 5914 5914 5914 5915 5916 5917 5917 5917 5917 5917 5917 5917 5917 5917 5918 5918 5919 5919 5918 5918 5918 5918 5917 5917 5917 5917 5916 5915 5913 5913 5912 5911 5911 5910 5910 5909 5909 5908 5908 5908 5908 5907 5906 5905 5904 5902 5901 5899 5899 5899 5899 5900 5900 5899 5899 5899 5898 5897 5897 5896 5895
5888 5889 5890 5891 5891 5892 5894 5895 5896 5897 5898 5899 5900 5901 5903 5904 5906 5907 5909 5909 5910 5910 5910 5911 5911 5911 5911 5911 5912 5913 5913 5914 5913 5913 5914 5913 5914 5914 5914 5915 5916 5916 5915 5915 5915 5914 5914 5913 5913 5913 5912 5911 5910 5909 5908 5908 5907 5907 5907 5906 5906 5904 5904 5904 5903 5903 5903 5902 5901 5900 5899 5897 5896 5896 5896 5896 5896 5896 5895 5895 5895 5894 5894 5893 5892
5882 5883 5884 5885 5887 5888 5889 5890 5891 5893 5893 5894 5895 5897 5899 5900 5901 5902 5904 5904 5905 5906 5906 5906 5907 5907 5907 5907 5908 5909 5909 5910 5909 5909 5909 5909 5910 5911 5910 5910 5911 5912 5912 5912 5911 5911 5911 5910 5909 5909 5908 5907 5906 5905 5905 5904 5903 5903 5902 5902 5902 5901 5900 5899 5899 5899 5899 5898 5897 5897 5896 5895 5894 5893 5893 5892 5892 5892 5891 5891 5891 5891 5890 5890 5889
5876 5876 5877 5879 5881 5883 5884 5886 5888 5889 5889 5890 5891 5891 5894 5896 5896 5897 5898 5899 5900 5901 5901 5902 5902 5903 5903 5903 5904 5904 5905 5905 5905 5904 5905 5905 5906 5906 5905 5905 5906 5907 5907 5907 5907 5907 5907 5906 5906 5905 5904 5903 5902 5901 5901 5900 5900 5899 5898 5898 5898 5897 5896 5895 5895 5894 5894 5893 5893 5892 5892 5892 5891 5890 5890 5889 5888 5888 5887 5887 5887 5886 5886 5886 5886
5869 5870 5872 5874 5875 5876 5879 5882 5883 5884 5886 5887 5887 5886 5887 5890 5892 5893 5894 5894 5895 5896 5897 5898 5898 5898 5899 5899 5900 5900 5901 5901 5900 5900 5900 5901 5901 5901 5901 5901 5902 5902 5902 5902 5902 5902 5902 5902 5901 5901 5900 5899 5898 5898 5897 5896 5895 5894 5894 5893 5893 5892 5892 5891 5890 5890 5890 5889 5888 5888 5887 5887 5886 5886 5886 5885 5885 5884 5884 5883 5883 5882 5882 5882 5882